Temp
3 3 3 4 4 4 4 4 4 4 3 3 3 3 3 4 4 4 4 4 4 5 5 5 4 4 4 4 4 4 4 4 3 3 4 4 4 4 5 5 5 5 5 5 5 5 4 4 4 3 3 3 2 2 2 2 1 1 1 1 1 1 1 1 1 1 1 1 1 0 0 0 0 0 0 0 1 1 1 1 1 1 1 1 2 2
2 2 2 3 3 3 3 3 3 3 3 3 3 3 3 3 3 3 3 4 4 4 4 4 4 4 4 4 4 3 3 3 3 3 3 4 4 4 4 4 5 5 5 5 5 4 4 4 4 3 3 3 2 2 2 2 2 2 2 2 2 1 1 1 1 1 1 1 0 0 0 -0 -0 -0 0 0 0 1 1 1 1 1 1 1 2 2
1 2 2 2 3 3 3 3 3 3 3 3 3 3 3 3 3 3 3 3 3 3 4 4 4 4 4 3 3 3 3 3 3 3 3 3 4 4 4 4 4 4 4 4 4 4 4 4 4 3 3 3 2 2 2 2 2 2 2 2 2 2 2 1 1 1 1 1 0 0 0 -0 -0 -0 -0 0 0 0 1 1 1 1 1 1 1 2
1 1 1 2 2 2 2 2 2 2 2 2 2 2 3 3 3 3 2 2 2 3 3 3 3 3 3 3 3 3 3 3 3 3 3 3 3 4 4 4 4 4 4 4 4 4 4 4 3 3 3 3 2 2 2 2 2 2 2 2 2 2 2 1 1 1 1 0 0 -0 -0 -0 -0 -0 -0 -0 -0 0 0 0 1 1 1 1 1 1
1 1 1 2 2 2 2 2 2 2 2 2 2 2 2 2 2 2 2 2 2 2 2 2 3 3 3 3 2 2 2 2 2 3 3 3 3 3 4 4 4 4 4 4 4 4 4 3 3 3 3 3 2 2 2 2 2 2 2 2 2 2 2 1 1 0 0 -0 -0 -0 -0 -1 -1 -1 -1 -0 -0 -0 -0 0 0 0 0 1 1 1
1 1 2 2 2 2 1 2 2 2 2 2 2 2 2 2 2 2 2 2 2 2 2 2 2 2 2 2 2 2 2 2 2 3 3 3 3 3 3 3 4 4 4 4 4 4 3 3 3 3 3 2 2 2 2 2 2 2 2 2 2 2 1 1 1 0 -0 -0 -0 -1 -1 -1 -1 -1 -1 -1 -0 -0 -0 -0 -0 0 0 0 1 1
1 1 2 2 2 1 1 1 1 1 1 1 1 1 2 2 2 2 2 2 2 1 1 1 1 1 2 2 2 2 2 2 2 2 3 3 3 3 3 3 3 4 4 4 4 3 3 3 3 3 3 2 2 2 2 2 2 2 2 2 2 1 1 1 0 0 -0 -0 -0 -1 -1 -1 -1 -1 -1 -1 -1 -0 -0 -0 -0 -0 -0 0 0 0
1 1 1 2 1 1 1 1 1 1 1 1 1 1 1 1 2 2 2 2 1 1 1 1 1 1 1 2 2 2 2 2 2 3 3 3 3 3 3 3 3 3 3 3 3 3 3 3 3 3 3 2 2 2 2 2 2 2 2 2 1 1 1 1 0 0 -0 -0 -0 -0 -1 -1 -1 -1 -1 -1 -1 -0 -0 -0 -0 -0 -0 -0 -0 0
1 1 1 1 1 1 1 1 1 1 1 1 1 1 1 1 1 1 1 1 1 1 1 1 1 1 1 1 2 2 2 2 2 2 2 2 3 3 3 3 3 3 3 3 3 3 3 3 3 3 3 3 3 3 3 3 2 2 2 2 1 1 1 1 0 0 -0 -0 -0 -0 -0 -0 -1 -1 -1 -0 -0 -0 -0 -0 -0 -0 -0 -0 -0 -0
1 1 1 1 1 1 1 0 1 1 1 1 1 1 1 1 1 1 1 1 1 1 1 1 1 1 1 1 2 2 2 2 2 2 2 2 3 3 3 3 3 3 3 3 3 3 3 3 3 3 3 3 3 3 3 3 2 2 2 2 1 1 1 0 0 0 -0 -0 -0 -0 -0 -0 -0 -0 -0 -0 -0 -0 -0 -0 -0 -0 -0 -0 -0 -0
1 1 1 1 1 1 1 0 0 0 1 1 0 0 0 0 0 0 0 0 0 0 0 1 1 1 1 1 2 2 2 2 2 2 2 2 3 3 3 3 3 3 3 3 3 3 3 3 3 3 3 3 3 3 3 3 2 2 2 2 1 1 0 0 0 -0 -0 -0 -0 -0 -0 -0 -0 -0 -0 -0 -0 -0 -0 -0 -0 -0 -0 -0 -0 -0
1 1 1 0 0 0 0 0 -0 -0 0 -0 -0 -0 -0 -0 0 0 0 -0 -0 0 0 0 1 1 1 2 2 2 2 2 2 2 2 2 3 3 3 3 3 3 3 3 3 3 3 3 3 3 3 3 3 3 3 3 3 2 2 1 1 1 0 0 0 -0 -0 -0 -0 -0 -0 -0 -0 -0 -0 -0 -0 -0 -0 -0 -0 -0 -0 -0 -0 -0
1 1 1 0 0 0 -0 -0 -0 -0 -0 -0 -0 -1 -1 -1 -0 -0 0 0 -0 -0 0 0 0 1 1 1 2 2 2 2 2 2 2 2 3 3 3 3 3 3 3 3 3 3 3 3 3 3 3 3 3 3 3 3 2 2 2 1 1 0 0 0 0 -0 -0 -0 -0 -0 -0 -0 -0 -0 -0 -0 -0 -0 -0 -0 -0 -0 -0 -0 -0 -0
1 1 0 0 -0 -0 -0 -1 -1 -1 -1 -0 -0 -0 -0 -0 -0 -0 0 -0 -0 -0 -0 0 0 0 0 1 1 2 2 2 2 2 2 2 2 2 3 3 3 3 3 3 3 3 3 3 3 3 3 3 3 3 3 3 2 2 2 1 1 0 0 0 0 0 -0 -0 -0 -0 -0 -0 -0 -0 -0 -0 -0 -0 -0 -0 -0 -0 -0 -0 -0 -0
1 1 1 0 0 -0 -0 -1 -1 -1 -0 -0 -0 0 -0 -0 -0 -0 -0 -0 -0 -0 -0 -0 -0 -0 -0 0 1 1 1 1 1 1 2 2 2 2 2 2 2 3 3 3 3 3 3 3 3 3 3 3 3 3 3 2 2 2 1 1 1 0 0 0 0 0 0 0 -0 -0 -0 -0 -0 -0 -0 -0 -0 -0 -0 -0 -0 -0 -0 -0 -0 -0
1 1 1 0 0 -0 -0 -0 -0 -0 -0 -0 0 0 -0 -0 -0 -0 -0 -0 -1 -1 -1 -1 -1 -1 -1 -0 0 1 1 1 1 1 2 2 2 2 2 2 2 3 3 3 3 3 3 3 3 3 3 3 3 3 2 2 2 2 1 1 0 0 0 0 0 0 0 0 0 0 0 0 0 0 0 0 0 0 0 -0 -0 -0 -0 -0 -0 -0
1 1 1 1 0 0 -0 -0 -0 -0 -0 -0 0 0 0 -0 -0 -0 -0 -0 -1 -1 -1 -1 -1 -1 -1 -1 -0 0 1 1 1 1 1 2 2 2 2 2 2 3 3 3 3 3 3 3 3 3 3 3 2 2 2 2 2 1 1 1 0 0 0 0 0 0 0 0 0 0 0 0 0 0 0 0 0 0 0 0 0 -0 -0 -0 -0 -0
1 2 2 1 1 0 -0 -0 -0 -0 -0 -0 0 0 0 0 0 0 -0 -0 -1 -1 -1 -1 -0 -0 -1 -1 -0 0 1 1 1 1 1 1 2 2 2 2 2 2 2 2 2 2 3 3 3 3 2 2 2 2 2 2 2 1 1 1 0 0 -0 0 0 0 0 0 0 0 0 0 0 0 0 0 0 0 0 0 0 0 0 -0 -0 -0
2 2 2 1 1 0 -0 -0 -0 -0 -0 -0 0 0 0 0 0 0 0 -0 -0 -0 -0 -0 -0 0 1 1 1 1 1 1 1 1 1 1 1 2 2 2 2 2 2 2 2 2 2 2 2 2 2 2 2 2 1 1 1 1 1 1 0 -0 -0 0 0 0 0 0 0 0 0 0 0 0 0 0 0 0 0 0 0 0 0 0 -0 -0
2 2 2 1 1 0 -0 -0 -0 0 0 0 0 0 0 0 0 0 0 -0 -0 -0 -0 0 0 1 1 2 2 2 1 1 1 1 1 0 1 1 2 2 2 2 2 2 2 2 1 2 2 2 2 2 1 1 1 1 1 1 1 1 0 -0 -0 -0 0 0 0 0 0 0 0 0 0 0 0 0 0 0 0 0 0 0 0 0 0 0
2 2 2 2 2 1 0 0 0 1 1 1 1 0 0 0 0 0 0 -0 -0 0 0 0 1 1 1 2 2 2 2 1 1 1 1 0 0 1 2 2 2 1 2 2 1 1 1 1 1 1 1 1 1 1 1 1 1 1 1 1 0 -0 -0 -0 0 0 0 0 0 0 0 0 0 0 0 0 0 1 1 1 1 1 0 0 0 0
3 2 2 2 2 2 2 1 1 1 1 1 1 0 0 0 0 -0 -0 0 0 0 1 1 1 1 2 2 2 2 2 1 1 1 1 0 0 1 1 1 1 1 1 1 1 1 1 1 1 1 1 1 1 1 1 1 1 1 1 1 -0 -0 -0 0 0 0 0 0 0 0 0 0 0 0 0 1 1 1 1 1 1 1 1 0 0 0
4 3 3 2 2 3 3 2 2 1 1 1 1 1 1 1 0 0 0 0 0 1 1 1 1 1 1 2 2 2 1 1 1 1 1 1 0 1 1 1 1 1 1 1 1 1 0 0 1 1 1 1 1 1 1 1 1 1 1 0 -0 -0 -0 -0 0 0 0 0 0 0 0 0 0 1 1 1 1 1 1 1 1 1 1 1 1 1
3 3 3 3 2 3 3 3 2 1 1 1 1 1 1 1 1 1 1 1 1 1 0 0 0 1 1 1 1 1 1 1 1 1 1 1 1 1 1 1 1 1 1 1 0 0 0 0 0 1 1 1 1 1 1 1 1 1 1 0 -0 -0 -0 -0 -0 -0 0 0 0 0 0 1 1 1 1 1 1 1 1 1 1 1 1 1 1 1
3 3 3 3 3 3 3 2 2 2 1 1 1 1 1 1 1 1 1 1 1 1 0 0 0 -0 -0 0 0 1 1 1 1 1 0 0 0 0 1 1 1 1 0 0 0 -0 -0 0 0 0 1 1 1 1 1 1 1 1 0 -0 -1 -1 -0 -0 -0 -0 0 0 0 0 0 0 1 1 1 1 1 1 1 1 1 1 1 1 1 1
3 3 3 3 3 2 2 2 2 2 1 1 1 1 1 1 1 1 0 0 0 0 0 0 -0 -1 -1 -1 -0 0 1 1 1 1 0 0 0 0 0 0 0 0 0 0 -0 -0 -0 0 0 0 0 1 1 1 1 1 1 1 0 -0 -1 -1 -0 -0 -0 -0 0 0 0 0 0 0 0 0 1 1 1 1 0 0 0 0 0 0 1 1
2 2 2 2 2 2 2 2 2 1 1 1 1 1 1 1 1 0 0 0 0 0 0 -0 -1 -1 -2 -1 -1 -0 0 0 0 0 0 0 0 -0 -0 -0 0 0 -0 -0 -0 -0 -0 0 0 0 0 1 1 1 1 0 0 0 -0 -1 -1 -1 -0 -0 -0 -0 -0 0 0 0 0 0 0 0 0 0 0 0 0 0 0 0 0 0 0 1
2 2 2 2 2 2 1 1 1 1 1 0 1 1 1 1 1 0 -0 0 0 1 0 0 -0 -1 -2 -2 -1 -0 0 0 0 0 -0 -0 -0 -0 -0 -0 -0 -0 -0 -0 -0 -0 -0 0 0 0 0 0 0 1 0 0 -0 -0 -0 -1 -1 -0 -0 -0 -0 -0 -0 -0 0 0 0 0 0 0 -0 -0 -0 -0 -0 -1 -1 -1 -1 -0 -0 0
1 1 1 1 1 1 1 0 0 0 0 0 0 1 1 1 1 1 0 1 1 0 0 0 0 -0 -1 -1 -1 -1 -1 -0 -0 -0 -0 -0 -0 -0 -1 -0 -0 -0 -0 -0 -0 -0 0 0 0 0 0 -0 -0 -0 -0 -0 -0 -0 -0 -0 -0 -0 -0 -0 -0 -0 -0 -0 -0 -0 -0 -0 -0 -0 -1 -1 -1 -1 -1 -1 -1 -1 -1 -1 -1 -1
0 0 0 0 0 0 -0 -0 -0 -0 -0 0 0 0 1 1 1 2 2 1 1 1 0 0 0 -0 -1 -2 -2 -2 -2 -1 -0 -0 -0 -0 -0 -0 -1 -1 -1 -0 -0 -0 -0 -0 -0 0 0 0 -0 -0 -1 -0 -0 -0 -1 -0 -0 -0 -1 -1 -1 -1 -1 -1 -0 -0 -0 -0 -0 -0 -1 -1 -1 -1 -1 -2 -2 -2 -2 -2 -2 -2 -1 -1
-0 -0 -0 -1 -1 -1 -1 -1 -1 -1 -0 -0 -0 0 0 1 1 2 2 2 1 1 1 1 0 0 -0 -1 -2 -3 -2 -0 0 -0 -0 -0 -0 -0 -1 -1 -1 -0 -0 -0 -0 -1 -3 -1 -0 -0 -1 -1 -1 -1 -1 -0 -0 -0 -1 -1 -1 -1 -1 -1 -1 -1 -0 -0 -0 -0 -1 -1 -1 -1 -2 -2 -2 -2 -2 -2 -3 -3 -3 -2 -2 -2
-1 -1 -1 -1 -1 -1 -1 -1 -1 -1 -1 -1 -1 -0 -0 0 1 1 1 1 1 1 1 1 1 0 0 0 -1 -2 -1 0 0 -0 -0 -0 -0 -1 -1 -1 -1 -1 -1 -0 -0 -1 -3 -2 -1 -1 -1 -1 -1 -1 -1 -0 -0 -0 -0 -0 -0 -0 -1 -1 -1 -0 -0 -0 -1 -1 -1 -1 -1 -2 -2 -2 -2 -2 -2 -3 -3 -3 -3 -3 -3 -2
-1 -1 -1 -1 -1 -1 -1 -1 -1 -1 -1 -1 -1 -1 -0 -0 0 0 1 1 1 1 1 1 1 0 0 0 0 0 1 1 1 0 0 -0 -1 -1 -1 -1 -1 -1 -1 -1 -1 -1 -1 -1 -2 -2 -2 -1 -1 -1 -1 -1 -0 -0 -0 -0 -0 -0 -1 -1 -1 -1 -1 -1 -1 -1 -1 -1 -2 -2 -2 -2 -2 -2 -3 -3 -3 -3 -3 -3 -3 -3
-2 -2 -2 -2 -2 -2 -2 -2 -1 -1 -1 -1 -1 -1 -1 -0 -0 -0 -0 -0 0 0 0 1 0 0 -0 -0 0 0 0 1 1 1 0 -0 -1 -1 -2 -1 -1 -1 -1 -2 -2 -2 -2 -2 -2 -2 -2 -2 -1 -1 -1 -1 -1 -1 -1 -1 -1 -1 -1 -1 -1 -1 -1 -1 -1 -1 -1 -1 -2 -2 -2 -2 -2 -2 -3 -3 -3 -3 -3 -3 -3 -3
-2 -2 -2 -2 -2 -2 -2 -2 -2 -2 -2 -2 -1 -1 -1 -1 -1 -0 -0 -0 -0 -0 -0 -0 0 0 0 -0 -0 -0 0 1 1 0 0 -0 -1 -1 -1 -1 -1 -1 -2 -2 -2 -2 -2 -2 -2 -2 -2 -2 -1 -1 -1 -1 -1 -1 -1 -1 -1 -1 -1 -1 -1 -1 -1 -1 -1 -1 -1 -2 -2 -2 -2 -2 -2 -3 -3 -3 -3 -3 -3 -3 -3 -3
-3 -3 -3 -2 -2 -2 -2 -2 -2 -2 -2 -2 -2 -1 -1 -1 -1 -1 -1 -0 -0 -0 -0 -0 -0 -0 -0 -0 0 0 1 1 0 0 -0 -0 -1 -1 -1 -1 -1 -1 -2 -2 -2 -2 -2 -2 -2 -2 -2 -2 -2 -1 -1 -1 -1 -1 -1 -1 -1 -1 -1 -1 -1 -1 -1 -1 -1 -1 -1 -2 -2 -2 -2 -2 -3 -3 -3 -3 -3 -3 -3 -3 -3 -3
-3 -3 -3 -3 -3 -3 -3 -3 -2 -2 -2 -2 -2 -2 -2 -1 -1 -1 -1 -1 -1 -1 -1 -1 -1 -1 -1 -0 -0 0 1 0 0 -0 -0 -0 -1 -1 -1 -1 -1 -1 -2 -2 -2 -3 -3 -3 -3 -3 -3 -3 -2 -2 -1 -1 -1 -2 -2 -2 -2 -2 -2 -2 -2 -2 -2 -2 -2 -2 -2 -2 -2 -2 -3 -3 -3 -3 -3 -3 -3 -3 -3 -3 -3 -3
-3 -3 -3 -3 -3 -3 -3 -3 -3 -3 -2 -2 -2 -2 -2 -2 -1 -1 -1 -1 -1 -1 -1 -1 -1 -1 -1 -1 -0 -0 -0 -0 -0 -1 -1 -1 -1 -1 -1 -1 -2 -2 -2 -2 -2 -3 -3 -3 -3 -3 -3 -3 -3 -2 -2 -2 -2 -2 -2 -2 -2 -2 -2 -2 -2 -2 -2 -2 -2 -2 -2 -2 -2 -3 -3 -3 -3 -3 -3 -3 -2 -3 -3 -3 -3 -3
-3 -3 -3 -3 -3 -3 -3 -3 -3 -3 -3 -2 -2 -2 -2 -2 -2 -2 -1 -1 -1 -1 -1 -1 -1 -1 -1 -1 -1 -1 -1 -1 -1 -1 -1 -1 -1 -1 -1 -2 -2 -2 -2 -2 -3 -3 -3 -3 -3 -3 -3 -3 -3 -2 -2 -2 -2 -2 -2 -2 -2 -2 -2 -2 -2 -2 -2 -2 -2 -2 -2 -3 -3 -3 -3 -3 -3 -3 -3 -3 -3 -3 -3 -3 -3 -3
-3 -3 -3 -3 -3 -3 -3 -3 -3 -3 -3 -3 -2 -2 -2 -2 -2 -2 -2 -2 -2 -2 -2 -1 -1 -1 -1 -1 -1 -1 -1 -1 -1 -1 -1 -1 -1 -1 -2 -2 -2 -2 -3 -3 -3 -3 -3 -3 -3 -3 -3 -3 -3 -2 -2 -2 -2 -2 -2 -2 -2 -2 -2 -2 -2 -2 -2 -2 -3 -3 -3 -3 -3 -3 -3 -3 -3 -3 -3 -3 -3 -3 -3 -4 -4 -4
-3 -3 -3 -3 -3 -3 -3 -3 -3 -3 -3 -3 -3 -2 -2 -2 -2 -2 -2 -2 -2 -2 -2 -2 -2 -2 -2 -2 -2 -2 -2 -2 -2 -2 -2 -2 -2 -2 -2 -2 -2 -2 -3 -3 -3 -3 -3 -3 -3 -3 -3 -3 -3 -3 -3 -3 -3 -3 -3 -3 -3 -2 -2 -2 -2 -2 -2 -3 -3 -3 -3 -3 -3 -3 -3 -3 -3 -4 -4 -4 -4 -4 -4 -4 -4 -5
-3 -3 -3 -3 -3 -3 -3 -3 -3 -3 -3 -3 -3 -2 -2 -2 -2 -2 -2 -2 -2 -2 -2 -2 -2 -2 -2 -2 -2 -2 -2 -2 -2 -2 -2 -2 -2 -2 -3 -3 -3 -3 -3 -3 -3 -3 -3 -4 -4 -4 -4 -4 -4 -4 -3 -3 -3 -3 -3 -3 -3 -3 -3 -3 -2 -2 -3 -3 -3 -3 -3 -4 -4 -4 -4 -4 -4 -4 -4 -4 -4 -4 -4 -4 -5 -5
-3 -3 -3 -3 -3 -3 -3 -3 -3 -3 -3 -3 -3 -3 -2 -2 -2 -2 -2 -2 -2 -2 -2 -2 -2 -2 -2 -2 -2 -3 -3 -3 -3 -3 -3 -3 -3 -3 -3 -3 -3 -4 -4 -4 -4 -4 -4 -4 -4 -4 -4 -4 -4 -4 -4 -4 -3 -3 -3 -3 -4 -4 -4 -3 -3 -3 -3 -3 -3 -4 -4 -4 -4 -4 -4 -4 -4 -4 -4 -4 -4 -4 -5 -5 -5 -5
-3 -3 -3 -3 -3 -3 -3 -3 -3 -3 -3 -3 -3 -3 -3 -2 -2 -2 -2 -2 -2 -2 -2 -2 -2 -3 -3 -3 -3 -3 -3 -3 -3 -4 -4 -4 -4 -4 -4 -4 -4 -4 -4 -4 -4 -4 -4 -4 -4 -4 -4 -4 -5 -5 -4 -4 -4 -4 -4 -4 -4 -4 -4 -4 -4 -3 -4 -4 -4 -4 -4 -4 -4 -4 -4 -4 -4 -4 -4 -4 -5 -5 -5 -5 -5 -5
-3 -3 -3 -3 -3 -3 -3 -3 -3 -3 -3 -3 -3 -3 -3 -3 -3 -3 -2 -2 -3 -3 -3 -3 -3 -3 -3 -3 -3 -3 -3 -3 -3 -3 -4 -4 -4 -4 -4 -4 -4 -4 -4 -4 -4 -4 -4 -5 -5 -5 -5 -5 -5 -5 -5 -5 -5 -4 -4 -4 -4 -4 -4 -4 -4 -4 -4 -4 -4 -4 -4 -4 -4 -5 -5 -5 -4 -4 -5 -5 -5 -5 -5 -5 -5 -6
-3 -3 -3 -4 -3 -3 -3 -3 -3 -4 -4 -3 -3 -3 -3 -3 -3 -3 -3 -3 -3 -3 -3 -4 -4 -4 -4 -4 -4 -4 -4 -4 -4 -3 -3 -4 -4 -4 -4 -4 -4 -4 -4 -4 -4 -4 -4 -5 -5 -5 -5 -5 -5 -5 -5 -5 -5 -5 -5 -4 -4 -4 -4 -4 -4 -4 -4 -4 -5 -5 -5 -5 -5 -5 -5 -5 -5 -5 -5 -5 -5 -5 -5 -5 -6 -6
-3 -4 -4 -4 -4 -4 -4 -4 -4 -4 -4 -4 -4 -4 -4 -4 -4 -4 -4 -4 -4 -4 -4 -4 -4 -4 -4 -4 -4 -4 -4 -4 -4 -4 -4 -4 -4 -4 -4 -4 -4 -4 -4 -4 -4 -5 -5 -5 -5 -5 -5 -6 -6 -5 -5 -5 -5 -5 -5 -5 -5 -5 -5 -5 -4 -4 -5 -5 -5 -5 -5 -5 -5 -5 -5 -5 -5 -5 -6 -5 -5 -5 -6 -6 -6 -6
-3 -4 -4 -4 -4 -4 -4 -4 -4 -4 -4 -4 -4 -4 -4 -4 -4 -4 -5 -5 -5 -5 -5 -5 -5 -5 -4 -4 -4 -5 -5 -5 -4 -4 -4 -4 -4 -4 -4 -4 -4 -4 -5 -5 -5 -5 -5 -5 -5 -5 -5 -6 -6 -5 -5 -4 -4 -5 -5 -5 -5 -5 -5 -5 -5 -5 -5 -5 -5 -5 -5 -5 -5 -5 -5 -6 -6 -6 -6 -6 -6 -6 -6 -6 -6 -6
-4 -4 -4 -4 -5 -5 -5 -5 -5 -5 -5 -5 -5 -5 -5 -5 -5 -5 -5 -5 -5 -5 -5 -6 -6 -5 -5 -5 -5 -5 -5 -5 -5 -5 -5 -5 -4 -4 -5 -5 -5 -5 -5 -5 -5 -5 -5 -5 -5 -5 -5 -5 -5 -5 -5 -4 -4 -4 -5 -5 -5 -5 -5 -5 -5 -5 -5 -5 -5 -5 -5 -5 -6 -6 -6 -6 -6 -6 -6 -6 -6 -6 -6 -6 -6 -7
-4 -4 -4 -5 -5 -5 -5 -5 -5 -5 -5 -5 -5 -5 -5 -5 -5 -5 -5 -5 -5 -6 -6 -6 -6 -6 -6 -5 -5 -5 -5 -5 -5 -5 -5 -5 -5 -5 -5 -5 -5 -5 -5 -6 -6 -6 -6 -6 -5 -5 -4 -4 -4 -4 -4 -4 -4 -4 -5 -5 -5 -5 -5 -5 -5 -5 -5 -5 -5 -5 -5 -6 -6 -6 -6 -6 -6 -6 -6 -7 -6 -6 -6 -6 -7 -7
-4 -4 -5 -5 -5 -5 -5 -5 -5 -5 -5 -5 -5 -5 -6 -6 -6 -6 -6 -6 -6 -6 -6 -6 -6 -6 -6 -5 -5 -5 -5 -5 -5 -5 -5 -5 -6 -6 -5 -5 -5 -6 -6 -6 -7 -7 -7 -7 -6 -5 -4 -3 -3 -3 -4 -3 -4 -4 -5 -5 -5 -5 -5 -5 -5 -5 -5 -5 -6 -6 -6 -6 -6 -6 -6 -6 -7 -7 -7 -7 -7 -7 -7 -7 -7 -7
Height
822 824 826 827 829 830 832 833 834 835 836 837 838 838 839 840 841 841 841 841 842 842 842 843 843 844 845 846 847 848 848 849 850 851 851 851 852 852 852 853 853 853 853 854 854 855 855 856 856 857 857 858 858 859 859 860 860 860 860 860 860 860 860 860 860 861 862 862 863 863 863 863 864 864 864 864 865 865 865 864 864 864 864 864 864 864
822 823 825 827 828 829 831 832 833 834 835 836 837 838 838 839 840 841 841 842 842 842 842 843 843 844 844 845 846 847 848 849 849 850 850 851 851 851 851 852 852 853 853 853 854 854 855 855 856 856 857 857 858 858 859 859 859 859 859 859 859 859 859 859 860 861 861 862 862 863 863 863 863 864 864 864 864 864 864 864 864 864 863 863 863 863
821 823 824 826 827 828 830 831 833 833 834 835 836 837 838 839 839 840 841 841 842 842 843 843 843 844 844 845 846 847 848 848 849 849 850 850 850 850 851 851 852 852 852 853 853 854 854 855 855 856 856 857 857 858 858 858 858 858 858 858 858 858 858 859 859 860 861 861 862 862 862 863 863 863 863 863 864 864 864 864 863 863 863 863 863 863
820 821 823 825 827 828 828 830 831 833 834 835 836 837 838 839 839 840 840 841 841 842 843 843 843 844 844 845 846 847 847 848 848 849 849 849 849 850 850 851 851 851 852 852 853 853 854 854 855 855 856 856 857 857 857 857 857 857 857 857 857 857 858 858 859 860 860 861 861 862 862 862 863 863 863 863 863 863 863 863 863 863 863 862 862 862
820 821 822 824 826 827 828 829 831 832 833 835 836 837 838 839 839 840 841 841 841 842 842 843 843 844 844 845 846 846 847 847 848 848 848 849 849 849 850 850 851 851 851 852 852 853 853 854 854 855 855 856 856 856 857 857 856 856 856 856 856 857 857 858 858 859 860 861 861 861 862 862 862 862 862 862 862 862 862 862 862 862 862 861 861 861
819 820 821 823 824 826 827 829 830 831 833 834 836 837 838 839 839 840 841 841 841 841 842 843 843 844 844 845 846 846 847 847 847 848 848 848 848 849 849 850 850 850 851 851 852 853 853 853 854 854 855 855 855 855 856 856 856 855 855 856 856 856 857 858 858 859 860 860 861 861 861 861 861 862 862 862 862 862 862 861 861 861 861 860 860 860
818 820 821 822 824 825 827 828 829 830 832 833 835 837 838 838 839 840 841 841 841 841 842 842 843 843 844 845 846 846 846 847 847 847 848 848 848 848 849 849 850 850 850 851 852 852 853 853 853 854 854 854 855 855 855 855 855 855 855 855 855 856 857 857 858 859 859 860 860 861 861 861 861 861 861 861 861 861 861 861 860 860 860 859 859 859
817 819 820 822 823 825 826 827 828 829 830 832 833 835 837 838 839 840 840 840 841 841 841 842 842 843 844 844 845 845 846 846 846 847 847 847 848 848 848 849 849 850 850 851 851 852 852 853 853 853 854 854 854 854 854 854 854 854 854 854 855 856 856 857 858 858 859 859 860 860 860 860 860 860 860 860 860 860 860 860 860 859 859 859 858 858
814 817 819 820 822 823 825 827 828 829 830 831 832 833 835 837 838 839 839 840 840 840 841 841 842 843 843 844 844 845 845 846 846 846 847 847 847 848 848 848 849 849 850 850 851 851 852 852 853 853 853 853 853 853 853 853 853 853 854 854 855 855 856 857 857 858 858 859 859 859 859 860 860 860 860 860 859 859 859 859 858 858 858 858 858 857
814 816 818 819 821 822 823 825 827 828 830 831 832 833 833 834 836 837 838 839 839 840 840 841 841 842 842 843 844 844 845 845 846 846 846 847 847 847 848 848 848 849 849 850 850 851 851 852 852 852 852 852 853 853 853 853 853 853 853 854 854 855 856 856 857 858 858 858 858 859 859 859 859 859 859 859 859 858 858 858 858 857 857 857 856 856
815 816 817 819 821 822 823 824 826 827 829 830 832 833 833 833 834 835 836 837 838 839 840 840 841 841 842 842 843 843 844 844 845 845 846 846 846 847 847 848 848 848 849 849 850 850 850 851 851 851 852 852 852 852 852 852 852 853 853 853 854 855 855 856 857 857 858 858 858 858 858 858 858 858 858 858 858 858 858 857 857 856 856 855 855 855
814 816 818 819 820 822 823 824 825 827 828 830 831 833 833 833 833 834 834 836 837 838 839 839 840 840 841 842 842 843 843 844 844 844 845 845 846 846 847 847 848 848 848 849 849 849 850 850 850 851 851 851 851 851 851 852 852 852 853 853 854 854 855 856 856 857 857 857 857 857 858 858 858 858 858 857 857 857 857 856 856 855 855 854 854 853
813 815 817 818 820 821 822 823 825 826 827 828 828 829 830 831 832 833 834 835 836 837 838 838 839 840 840 841 841 842 842 843 843 844 844 845 845 846 846 846 847 847 848 848 848 848 849 849 849 850 850 850 851 851 851 851 852 852 852 853 853 854 855 855 856 856 856 857 857 857 857 857 857 857 857 857 856 856 856 855 855 854 854 853 853 853
813 815 817 818 819 820 821 821 822 823 824 824 824 825 826 828 831 833 834 835 836 837 838 838 839 839 840 840 841 841 842 842 843 843 844 844 845 845 845 846 846 846 847 847 848 848 848 848 849 849 849 850 850 850 850 851 851 852 852 853 853 854 854 855 855 855 856 856 856 856 856 856 856 856 856 856 856 855 855 854 854 853 853 852 852 852
811 813 815 817 818 818 819 819 820 820 821 822 823 825 827 828 830 832 833 834 835 837 838 838 838 839 839 839 840 840 841 841 842 843 843 843 844 844 845 845 845 846 846 846 847 847 847 848 848 848 849 849 849 850 850 850 851 851 852 852 853 853 854 854 854 855 855 855 855 855 855 855 855 855 855 855 855 854 854 853 853 853 852 851 851 850
809 810 812 813 815 816 817 817 818 819 820 822 823 825 826 828 828 830 831 833 834 835 837 838 838 838 838 838 838 839 840 840 841 841 842 843 843 843 844 844 844 845 845 845 846 846 846 847 848 848 848 848 849 849 849 850 850 851 851 852 852 853 853 853 854 854 854 854 854 854 854 854 854 854 854 854 854 853 853 853 852 852 851 850 850 849
807 808 810 811 813 813 815 816 817 818 819 821 822 823 824 825 826 828 829 831 832 834 835 835 837 837 837 837 838 838 838 839 840 840 841 841 842 843 843 843 843 844 844 844 845 845 846 846 847 847 848 848 848 849 849 849 850 850 851 851 852 852 853 853 853 853 853 853 853 853 853 853 853 853 853 853 853 853 852 852 851 851 850 849 849 848
806 807 808 809 810 812 813 814 816 817 818 819 821 822 823 824 825 827 828 829 830 832 832 833 833 834 834 835 836 836 837 838 839 839 840 840 841 841 842 842 843 843 843 843 844 844 845 845 846 847 847 848 848 848 848 849 849 850 850 850 851 851 852 852 852 853 853 853 853 853 853 853 853 853 852 852 852 851 851 850 850 849 849 848 848 848
804 805 806 807 808 809 811 812 813 814 816 817 819 821 823 824 825 826 827 828 828 829 830 831 832 832 832 832 833 834 835 837 838 838 839 839 840 840 841 841 842 842 843 843 843 844 844 845 845 846 847 847 847 848 848 848 848 849 849 850 850 850 851 851 851 852 852 852 852 852 852 852 852 852 851 851 851 850 850 849 849 848 848 848 847 847
802 803 804 805 806 808 809 810 811 812 813 815 817 819 821 823 824 825 825 826 827 828 828 829 830 831 831 831 832 833 834 836 837 837 838 838 838 839 840 840 841 841 842 842 843 843 844 844 845 845 846 846 847 847 847 848 848 848 848 849 849 850 850 850 851 851 851 851 851 851 851 851 851 851 850 850 850 849 849 848 848 848 847 847 846 846
800 801 802 803 804 806 807 808 809 810 812 813 816 818 819 821 822 823 824 825 826 827 828 829 830 830 830 831 832 833 834 835 836 836 837 837 838 838 839 840 840 841 841 842 843 843 843 843 844 845 845 846 846 846 847 847 847 847 848 848 848 849 849 849 850 850 850 850 850 850 850 850 850 850 849 849 849 848 848 848 847 847 846 845 845 844
798 799 801 802 803 804 804 806 808 809 811 813 814 816 817 818 820 821 822 823 824 826 828 828 829 829 830 830 831 832 833 834 834 835 836 837 837 838 838 839 840 840 841 841 842 843 843 843 843 844 844 845 845 845 845 846 846 846 847 847 847 848 848 848 849 849 849 849 849 849 849 849 849 849 848 848 848 847 847 847 846 846 845 844 844 843
798 798 800 801 802 803 804 805 807 808 810 811 812 813 814 816 817 819 820 822 823 825 826 827 827 828 829 830 831 832 832 833 834 834 835 836 836 837 838 838 839 839 840 841 841 842 842 842 843 843 843 844 844 844 844 844 845 845 845 846 846 847 847 848 848 848 848 848 848 848 848 848 848 848 848 847 847 846 846 846 845 844 844 843 843 842
798 798 799 800 801 803 804 805 806 808 809 810 812 813 815 816 817 819 820 822 823 824 825 826 827 828 829 830 830 831 831 832 833 834 835 835 836 836 837 838 838 839 839 840 841 841 841 842 842 842 843 843 843 843 843 843 843 844 844 845 845 846 846 847 847 848 848 848 848 848 848 847 847 847 847 846 846 845 845 844 844 843 843 842 842 841
797 798 799 800 801 802 803 804 805 807 808 810 812 814 815 817 818 820 821 822 823 823 824 826 827 828 828 829 829 830 830 831 832 833 834 835 836 836 837 838 838 838 839 839 840 840 841 841 841 841 841 842 842 842 842 842 842 843 843 843 844 845 845 846 846 847 847 847 847 847 847 847 846 846 846 845 845 844 844 843 843 843 842 841 840 840
797 798 798 799 800 802 803 804 805 806 808 809 811 813 814 816 818 819 820 821 822 823 824 825 826 826 827 828 828 829 829 830 831 832 833 834 835 836 836 837 838 838 838 839 839 839 840 840 840 840 840 840 840 840 841 841 841 841 842 843 843 844 844 845 845 846 846 846 846 846 846 846 845 845 845 844 844 844 843 843 842 841 841 840 839 839
797 798 798 799 800 802 803 804 805 806 808 809 810 812 813 814 816 818 819 819 820 821 822 823 825 826 826 827 827 828 829 830 831 832 833 834 835 835 836 836 837 838 838 838 838 839 839 839 839 839 839 839 839 839 839 840 840 840 841 842 842 843 843 844 844 845 845 845 845 845 845 845 844 844 844 843 843 843 842 842 841 840 840 839 838 838
797 798 798 799 800 801 803 804 805 806 808 809 810 811 812 813 814 815 816 817 818 819 820 821 823 824 825 826 827 827 828 829 830 831 832 833 834 834 835 836 837 837 838 838 838 838 838 838 838 838 838 838 838 838 838 838 839 839 840 841 841 842 843 843 843 843 844 844 844 844 844 844 843 843 843 843 842 842 841 841 840 839 838 838 837 836
797 798 799 800 801 802 803 804 805 806 808 809 810 811 812 813 813 813 814 815 817 818 819 820 821 822 823 825 826 827 828 828 829 831 832 833 833 833 834 835 836 837 837 837 838 837 837 837 837 837 837 837 837 837 837 838 838 838 839 840 841 841 842 842 842 843 843 843 843 843 843 843 843 843 842 842 841 841 840 840 839 838 837 837 836 835
797 798 799 800 801 802 803 804 806 807 808 809 810 811 812 813 813 813 814 815 816 817 818 819 820 821 823 824 826 827 828 828 828 830 831 832 832 833 833 834 835 836 836 837 837 837 836 835 835 836 836 836 836 836 836 837 837 838 838 839 840 840 841 841 841 842 842 842 842 842 842 842 842 841 841 841 840 840 839 839 838 837 836 835 835 834
796 797 798 800 801 802 803 805 806 807 808 809 810 811 812 813 814 814 815 815 816 816 817 818 819 820 821 823 825 827 826 826 827 828 829 830 831 831 832 833 834 835 835 836 835 835 835 834 834 834 835 835 835 835 836 836 836 837 838 838 839 839 840 840 840 840 841 841 841 841 841 841 841 840 840 840 839 839 838 838 837 836 835 834 833 833
796 797 798 799 801 802 803 805 806 807 808 809 810 810 811 812 813 814 815 816 816 817 817 818 818 819 820 821 823 823 824 824 826 827 828 829 830 831 831 832 833 834 834 834 834 833 833 833 833 833 834 834 834 835 835 835 836 836 837 837 838 838 838 839 839 839 839 839 840 840 840 839 839 839 839 838 838 838 837 837 836 835 834 833 832 831
796 797 798 800 801 803 804 805 806 807 808 808 809 810 811 812 813 814 815 816 816 817 817 818 818 819 820 821 822 822 823 823 824 826 827 828 829 830 830 831 832 833 833 833 833 833 833 833 833 833 833 833 834 834 834 835 835 835 836 836 837 837 837 838 838 838 838 838 838 838 838 838 838 838 838 837 837 837 836 836 835 834 833 833 831 830
796 798 799 800 802 803 804 805 806 807 808 808 809 809 810 811 812 813 814 815 816 817 817 818 818 819 820 821 822 822 823 823 824 825 826 827 828 828 829 830 831 831 832 832 832 832 832 832 832 833 833 833 833 833 833 834 834 834 835 835 835 836 836 836 836 837 837 837 837 837 837 837 837 837 836 836 836 835 835 834 834 833 833 832 830 829
797 798 800 801 802 803 805 806 807 807 808 808 809 809 810 811 811 812 813 814 815 816 817 818 818 819 820 820 821 821 822 823 823 824 825 826 827 828 828 829 830 830 830 831 831 831 831 831 832 832 832 832 832 833 833 833 833 833 833 834 834 834 835 835 835 835 835 835 835 836 836 836 835 835 835 834 834 834 833 833 833 832 831 831 830 829
798 799 801 802 803 803 804 805 806 807 808 808 808 809 810 810 811 812 812 813 814 815 816 817 818 819 819 820 820 821 821 822 823 824 825 825 826 827 828 828 828 829 829 829 830 830 830 830 831 831 832 832 832 832 832 832 832 832 833 833 833 833 833 833 833 834 834 834 834 834 834 834 834 834 833 833 833 833 832 832 831 831 830 829 829 828
799 800 801 802 803 803 804 805 806 806 807 807 808 808 809 810 811 811 812 813 814 814 815 816 817 818 819 819 820 821 821 822 823 823 824 825 826 826 827 827 828 828 828 828 828 829 829 830 830 831 831 831 831 831 831 831 831 831 831 831 832 832 832 832 832 833 833 833 833 833 833 833 833 833 832 832 832 831 831 830 830 829 828 828 828 828
800 801 802 802 803 803 804 805 805 806 806 807 807 808 808 809 810 811 812 813 813 814 815 816 817 818 818 819 820 820 821 822 823 823 824 824 825 826 826 826 827 827 827 828 828 828 829 829 829 830 830 830 830 830 830 830 830 830 830 830 831 831 831 831 831 832 832 832 832 832 832 832 832 832 831 831 831 830 829 829 828 828 827 827 827 826
800 801 802 802 803 803 804 804 805 805 806 806 807 807 808 809 810 811 812 812 813 814 815 816 817 818 818 819 819 820 820 821 822 823 823 824 824 825 825 826 826 826 826 827 827 828 828 828 828 828 828 828 828 828 829 829 829 829 829 829 829 830 830 830 831 831 831 831 831 831 831 831 831 831 830 830 829 829 828 827 827 826 826 825 825 825
800 800 801 802 802 803 803 804 804 805 805 806 806 807 808 808 809 810 811 812 813 814 815 816 817 818 818 818 819 819 820 820 821 822 823 823 824 824 825 825 825 825 825 826 826 827 827 827 827 827 827 827 828 828 828 828 828 828 828 828 828 828 829 829 830 830 830 830 830 830 830 830 830 829 829 829 828 828 827 826 826 825 825 825 824 823
799 800 801 801 802 803 803 803 804 804 805 805 806 806 807 807 808 809 810 811 812 813 814 815 816 817 818 818 818 819 819 820 821 821 822 823 823 824 824 824 824 824 825 825 825 825 826 826 826 826 826 826 826 826 826 827 827 827 828 827 827 827 828 828 828 829 829 829 829 829 829 829 828 828 828 827 827 826 826 825 825 824 824 824 824 823
798 799 800 801 802 802 803 803 803 804 804 804 805 805 806 806 807 808 809 810 811 812 813 814 815 816 817 818 818 818 819 819 820 821 821 822 823 823 823 823 823 824 824 824 824 824 825 825 825 825 825 825 825 825 825 825 826 826 826 826 826 827 827 827 827 828 828 828 828 828 828 828 827 827 826 826 825 825 825 824 824 824 823 823 823 823
797 798 799 800 800 801 801 802 802 803 803 804 804 805 805 806 806 807 808 809 810 811 812 813 814 815 816 817 817 818 818 819 819 820 820 821 821 822 822 822 822 823 823 823 823 823 823 824 824 824 824 824 824 824 824 824 824 825 825 825 826 827 826 826 826 827 827 827 827 827 827 827 826 826 825 824 824 823 823 823 823 823 823 823 822 822
797 798 798 799 799 800 800 801 801 802 802 803 803 804 804 805 806 807 808 808 809 810 812 813 813 814 815 816 817 817 818 818 818 819 819 820 820 820 821 821 821 821 822 822 822 822 823 823 823 823 823 823 823 823 823 823 823 823 824 824 825 825 825 825 825 826 826 826 826 826 826 825 825 824 823 823 823 822 822 822 822 822 822 822 821 821
797 797 797 798 798 799 799 800 800 801 801 802 802 803 803 804 805 806 807 808 809 810 811 812 813 814 815 815 816 816 817 817 818 818 818 819 819 819 819 819 820 820 820 821 821 821 821 821 822 822 822 822 822 822 822 821 822 822 822 823 824 824 824 824 824 825 825 825 825 825 825 824 823 823 822 821 821 821 821 821 820 820 820 820 820 819
796 796 797 797 797 798 798 798 799 800 800 801 802 802 803 803 804 805 806 807 808 809 810 811 812 813 814 814 815 816 816 816 816 817 817 817 818 818 818 818 818 819 819 819 820 820 820 820 820 821 821 821 820 820 820 820 821 821 821 822 823 823 823 823 823 823 823 823 823 823 823 823 822 821 820 819 819 819 819 819 819 819 819 818 818 818
795 795 795 796 796 797 797 797 798 798 799 800 801 802 802 803 804 805 806 807 808 808 809 811 812 812 813 813 814 814 815 815 815 815 816 816 816 816 817 817 817 818 818 818 818 819 819 819 819 819 820 819 819 818 818 819 819 820 820 821 821 822 822 822 822 822 823 823 822 822 822 822 821 820 819 818 818 818 817 818 818 818 818 817 817 816
793 794 794 795 795 796 796 797 797 798 798 799 800 801 802 803 803 804 805 806 807 808 809 810 811 812 812 813 813 813 814 814 813 814 814 814 815 815 816 816 816 816 817 817 817 817 818 818 818 818 818 818 818 817 817 818 818 819 819 819 820 820 820 820 820 821 821 821 821 821 821 820 820 819 818 818 817 816 816 816 816 816 816 816 815 815
792 793 793 794 794 795 795 796 796 797 798 798 799 800 801 802 803 804 805 806 807 808 808 809 810 811 811 812 812 813 813 813 813 813 813 813 813 814 814 815 815 815 816 816 816 816 816 816 816 816 816 816 816 816 816 816 817 818 818 818 818 818 818 819 819 819 820 820 820 820 819 819 819 818 818 817 816 814 814 814 814 814 814 814 814 813
791 791 792 793 793 794 794 795 795 796 797 798 799 800 801 802 803 804 805 806 806 807 808 808 809 809 810 810 811 811 812 812 812 812 811 812 812 813 813 813 814 814 814 815 815 815 815 815 815 814 814 814 815 815 814 814 815 816 817 817 817 817 817 817 818 818 818 818 818 818 818 818 818 818 817 817 815 813 813 812 812 813 813 813 813 812
790 790 791 792 792 793 793 794 795 795 796 797 798 799 800 801 802 803 804 805 806 807 807 807 808 808 808 809 809 810 810 810 810 810 810 810 811 811 812 812 813 813 813 814 814 815 815 815 814 813 813 813 813 813 813 813 814 814 815 815 815 816 816 816 816 817 817 817 817 817 817 817 817 817 817 816 815 813 812 811 810 811 811 811 811 810
Wind_Speed
22 24 26 27 28 27 27 28 27 25 23 22 21 20 20 19 19 18 17 17 16 16 16 15 15 14 13 12 11 11 11 11 11 11 11 11 11 11 10 10 9 9 8 8 7 7 7 7 7 7 8 8 8 8 8 8 7 7 6 6 5 5 4 4 4 3 3 3 2 2 2 3 3 3 3 3 3 4 4 4 4 5 5 5 6 6
22 23 25 26 27 26 26 27 27 26 24 22 21 21 21 20 19 18 17 16 15 15 15 15 15 14 14 13 12 12 12 12 11 11 11 11 10 10 10 9 9 8 8 7 7 7 6 6 6 7 7 8 9 9 9 8 8 7 6 6 5 5 4 4 3 2 2 1 1 1 1 2 2 2 3 3 3 3 4 4 4 5 5 5 6 6
21 22 23 24 25 25 24 26 26 25 24 22 22 21 21 20 20 18 16 15 14 14 14 15 15 14 14 14 13 13 13 12 12 11 11 10 10 10 9 8 8 7 7 7 6 6 6 6 6 6 6 7 8 8 8 8 7 6 5 5 4 4 4 3 3 2 1 0 0 1 1 1 2 2 2 2 3 3 3 3 4 4 5 5 5 6
21 21 22 22 23 23 23 25 26 25 23 22 21 21 21 20 19 18 16 15 14 14 14 14 14 15 15 14 14 14 13 13 12 12 11 10 10 9 8 8 7 7 6 6 6 5 5 5 5 5 5 6 6 7 7 7 6 5 4 3 3 3 3 3 2 1 0 0 1 1 1 1 1 2 2 2 3 3 3 3 4 4 5 5 5 6
19 20 21 21 20 19 21 24 25 24 22 21 20 20 20 20 19 18 17 15 14 13 13 13 14 15 15 15 15 14 14 13 12 12 11 10 10 9 8 8 7 6 6 5 5 5 5 5 5 5 5 5 5 5 5 5 5 4 3 2 2 2 2 2 2 1 1 1 1 1 1 1 1 2 2 2 3 3 3 4 4 4 5 5 5 5
18 19 21 20 19 18 19 21 23 23 22 20 20 20 20 20 20 19 18 17 15 14 13 13 14 15 15 16 16 15 14 13 12 11 11 10 9 9 8 7 7 6 5 5 5 5 4 4 4 4 4 4 5 5 4 4 4 3 2 2 1 1 2 2 2 2 1 0 1 1 1 2 2 2 2 3 3 3 3 4 4 5 5 5 5 5
18 19 20 19 18 18 18 20 22 23 22 21 20 20 20 20 20 20 19 19 18 16 15 15 15 15 15 16 16 15 14 14 12 11 10 10 9 8 8 7 7 6 5 5 5 5 4 4 4 4 4 4 4 4 4 3 3 3 2 2 1 1 1 2 2 2 2 2 1 1 2 2 2 3 3 3 3 3 3 4 4 5 5 5 5 6
19 20 20 19 18 17 18 19 21 22 23 22 21 21 20 20 20 20 20 20 19 18 17 16 16 16 16 16 16 15 15 14 12 11 10 10 9 9 8 7 7 6 6 5 5 5 5 4 4 4 4 4 4 4 3 3 3 3 2 2 2 1 1 2 2 2 3 3 3 3 2 2 3 3 3 3 4 4 4 4 4 4 4 5 5 6
21 21 20 19 19 19 18 18 20 22 23 23 23 22 21 20 20 20 20 20 19 18 18 18 17 17 17 16 15 15 14 13 12 11 10 10 10 9 9 8 7 6 6 6 6 5 5 5 4 4 4 4 4 4 3 3 3 3 3 2 2 2 2 2 3 3 3 4 4 4 4 3 4 4 4 4 5 5 5 5 5 4 4 4 5 5
22 22 20 20 20 20 19 18 20 22 22 22 23 23 22 22 21 20 20 19 19 19 19 19 19 18 18 16 15 14 13 13 12 11 11 11 10 10 9 8 7 7 6 6 6 6 6 5 5 5 4 4 4 4 4 3 3 3 3 3 3 3 3 3 3 4 4 4 4 5 5 5 5 5 5 6 6 6 6 6 6 6 5 4 4 5
20 21 20 19 19 19 19 19 20 21 22 21 21 21 21 21 21 21 20 19 20 20 20 20 19 19 18 17 16 15 14 13 13 12 12 11 10 10 9 8 7 7 7 7 7 7 6 6 5 5 5 5 4 4 4 4 4 4 4 4 4 4 4 4 4 5 5 5 5 5 5 6 6 6 6 6 7 7 7 8 8 8 7 6 5 5
18 18 18 17 17 17 18 19 20 21 22 20 18 17 18 20 22 22 21 21 21 21 21 21 20 19 18 17 17 16 15 14 13 13 12 11 11 10 9 8 8 8 8 8 8 7 7 6 6 5 5 5 5 5 5 4 4 4 4 4 4 5 5 5 5 6 5 5 5 5 6 6 6 6 7 7 7 8 8 8 9 9 8 8 7 6
18 17 17 17 17 18 18 19 20 20 21 20 19 18 19 21 23 23 22 21 21 21 21 20 19 19 19 18 17 16 16 15 14 13 12 11 10 10 9 8 8 8 8 8 8 8 7 7 6 6 6 5 5 5 5 5 5 5 5 5 5 6 6 6 7 7 7 6 6 6 6 7 7 7 7 8 8 8 9 9 9 9 9 9 8 8
17 17 16 16 16 17 19 21 21 21 21 22 22 22 22 23 23 22 20 20 20 20 20 18 17 17 17 17 17 16 16 15 15 14 13 12 11 10 9 8 8 8 8 8 8 8 8 7 7 6 6 6 6 6 6 6 6 6 6 6 6 7 7 8 8 8 8 7 7 7 7 7 8 8 8 9 9 9 9 9 10 10 10 9 9 9
18 17 16 16 16 18 19 21 22 22 22 22 22 21 21 22 23 22 20 18 18 18 18 17 16 15 15 16 16 16 16 16 15 14 13 12 11 10 9 9 8 9 8 8 8 8 8 8 7 7 6 6 6 6 6 6 6 6 6 7 7 8 8 9 9 9 9 8 8 8 8 8 9 9 9 10 10 10 10 10 10 10 10 10 10 10
19 19 17 17 17 18 20 22 22 22 22 21 21 20 21 22 23 22 20 19 19 19 18 16 14 13 14 17 18 17 16 16 15 14 13 12 12 11 10 9 9 9 9 9 8 8 8 8 8 7 7 6 6 6 6 6 6 7 7 7 8 9 9 10 10 10 9 9 9 9 9 9 10 10 10 11 11 11 11 11 11 11 11 11 11 10
19 19 18 18 18 19 21 22 22 22 22 22 22 22 23 24 24 23 21 20 20 20 18 17 14 10 11 15 18 19 18 16 15 14 12 11 11 10 9 9 8 8 8 8 8 8 8 8 7 7 6 6 6 6 6 6 6 7 8 8 9 10 10 11 11 10 10 10 10 10 10 10 11 11 11 11 12 12 12 11 12 11 12 11 11 11
19 19 19 18 18 19 21 22 22 22 23 23 23 23 23 24 24 24 22 21 21 20 19 18 16 12 10 11 17 21 20 18 16 14 12 11 10 10 9 8 8 8 8 8 8 8 8 8 7 6 6 6 6 6 6 6 7 8 8 9 10 11 11 12 11 11 11 11 11 11 11 11 12 12 12 12 12 12 12 12 12 12 12 12 12 12
19 19 19 18 19 20 22 23 24 24 24 25 24 24 23 23 24 24 23 22 22 21 20 19 17 15 13 11 16 22 21 19 17 15 13 11 11 10 9 8 8 8 8 9 9 8 9 8 8 7 7 7 7 7 7 7 8 9 9 10 11 12 12 12 12 11 11 11 11 11 12 12 12 12 12 12 12 12 12 12 12 12 12 12 12 12
20 20 20 20 21 21 22 24 26 27 27 27 27 25 24 24 24 24 23 23 22 22 21 19 18 16 15 14 16 20 22 19 17 16 14 12 11 10 9 9 8 9 9 10 9 9 9 9 9 8 8 8 8 8 9 9 9 10 10 11 12 13 13 13 12 11 11 11 11 12 12 12 12 12 12 12 13 13 13 13 13 13 13 13 13 13
22 21 23 24 23 22 22 24 27 28 28 29 28 26 25 25 24 24 24 23 22 21 20 18 17 16 16 16 15 17 21 20 18 17 15 13 11 11 10 10 9 10 10 10 10 10 10 10 10 10 9 9 9 10 10 10 10 11 11 12 12 13 13 13 12 11 11 11 11 12 12 12 12 12 12 12 13 13 13 13 13 13 13 13 13 13
24 24 24 24 25 25 25 26 27 28 28 29 29 28 26 26 25 24 24 24 23 21 19 17 15 16 16 15 15 16 19 18 18 17 15 13 12 12 12 11 10 10 11 11 11 11 11 11 11 11 10 10 10 11 11 11 11 11 12 12 13 13 13 12 11 10 11 11 12 12 12 12 12 12 12 12 13 13 13 13 13 13 13 13 13 13
24 24 24 23 24 25 25 25 26 27 28 30 31 30 29 28 27 26 25 24 23 22 19 18 16 15 15 14 14 15 16 17 17 16 15 13 13 13 13 12 11 11 11 11 11 11 12 12 12 11 11 11 11 12 12 12 12 12 12 12 13 13 12 11 10 10 11 11 12 12 12 12 12 12 12 13 13 13 13 13 13 13 13 13 14 14
22 22 22 22 22 23 23 23 24 26 27 29 29 29 29 28 27 26 25 24 23 22 20 19 16 14 13 13 13 14 16 16 16 16 15 14 13 13 13 12 12 11 11 11 11 12 12 13 12 12 11 12 12 12 13 12 12 12 11 12 12 12 11 10 10 10 11 12 12 12 12 12 12 12 13 13 13 14 14 14 14 14 14 14 14 14
20 20 21 21 21 21 21 22 23 25 26 28 28 27 26 25 24 24 23 23 22 21 20 17 15 14 14 13 14 15 15 15 16 16 15 14 13 13 14 13 12 11 11 11 11 12 12 13 12 12 12 12 12 13 13 12 12 11 11 12 12 12 11 10 10 10 11 12 12 12 12 12 12 13 13 13 14 14 14 14 14 14 14 15 15 15
18 19 19 19 19 19 20 21 22 24 26 27 28 27 26 25 24 23 22 22 22 21 20 17 15 14 14 15 16 16 16 15 16 17 16 14 13 13 14 13 12 11 11 11 12 12 12 13 13 13 12 12 13 12 12 12 11 11 11 12 12 12 11 10 10 11 12 12 12 12 12 12 12 13 14 14 14 14 14 14 14 15 15 15 16 16
16 16 17 17 17 17 18 20 21 23 25 26 27 28 27 27 26 24 23 23 24 23 21 16 13 11 12 13 15 16 16 16 16 17 17 15 13 12 14 14 13 11 11 12 12 12 12 12 12 12 12 12 12 12 11 10 10 10 11 12 12 12 11 10 10 11 12 12 12 12 12 12 13 13 14 14 14 14 14 14 14 15 15 16 16 16
14 14 14 15 15 16 17 19 21 22 24 25 26 27 28 28 26 25 24 26 26 24 21 18 14 11 10 11 14 16 16 17 17 18 18 16 13 11 14 14 13 12 12 12 11 11 11 11 11 11 10 11 11 11 10 9 9 10 11 12 12 11 10 10 11 12 12 12 12 11 12 12 13 13 13 13 13 13 13 13 13 14 15 15 16 16
12 12 12 13 14 16 17 19 20 21 23 24 25 26 26 27 27 26 27 28 26 24 21 19 16 13 11 12 13 14 16 17 18 19 19 17 13 11 14 13 13 13 12 10 9 9 10 11 10 9 8 9 9 9 8 8 8 10 11 12 12 11 10 11 12 12 11 11 11 11 11 12 12 12 11 11 11 11 11 12 12 13 14 14 15 15
14 14 14 14 15 16 17 19 19 20 20 21 23 24 24 25 26 26 27 28 26 24 21 19 17 15 13 12 10 9 13 17 19 19 20 18 15 14 14 13 13 13 12 8 5 5 7 9 9 8 7 7 7 7 7 7 8 10 11 11 11 11 11 11 11 11 10 10 10 10 10 10 10 10 10 10 10 10 10 11 11 12 13 14 15 15
18 18 18 18 18 18 19 19 19 19 19 19 21 22 22 22 23 24 25 26 26 24 22 20 18 17 16 12 7 4 9 17 20 20 20 19 17 15 15 14 14 14 12 8 5 2 2 5 7 7 6 5 5 5 5 6 7 9 10 10 11 11 11 11 10 9 9 8 8 8 9 9 9 9 9 9 10 10 10 10 11 12 13 14 15 16
21 21 21 21 21 21 21 20 20 20 19 20 20 21 20 20 20 21 22 23 23 23 22 21 20 19 19 15 10 7 8 15 19 20 20 19 17 16 15 15 14 14 12 11 7 4 2 3 5 6 6 5 5 5 4 5 6 7 9 10 10 10 10 9 8 8 7 7 8 8 8 8 8 9 9 9 9 10 10 10 11 11 13 14 16 17
21 21 21 21 21 21 22 22 21 21 20 21 21 20 20 19 19 19 19 20 20 20 19 19 20 19 19 17 14 10 8 12 16 20 20 18 16 15 15 15 15 14 12 12 9 7 4 4 4 5 5 5 5 5 5 6 6 7 8 9 9 9 8 7 7 7 7 8 8 8 9 9 9 9 9 9 10 10 10 10 10 11 12 14 16 17
20 20 21 21 21 21 21 21 21 21 20 20 20 20 20 19 18 18 19 19 18 18 17 18 19 19 19 16 13 10 9 10 14 18 19 19 16 15 17 16 15 14 13 11 10 8 5 5 6 5 5 6 7 7 7 7 7 8 8 8 8 7 6 6 7 7 8 9 9 9 9 10 10 10 10 11 11 11 11 11 11 12 12 13 15 16
19 19 19 20 20 20 20 20 20 20 19 19 19 19 19 19 19 19 19 19 19 18 17 16 17 18 18 17 15 13 11 11 13 16 18 19 18 17 17 17 16 15 13 12 10 8 6 7 7 6 5 6 7 8 8 7 7 7 8 8 7 7 6 7 7 8 9 10 10 10 10 11 11 11 12 12 12 12 12 12 12 13 13 13 13 14
19 19 19 19 19 19 19 19 19 19 19 18 18 18 18 18 18 19 19 20 20 19 18 17 17 16 16 16 16 15 14 13 13 15 17 19 19 17 16 16 16 15 14 13 12 9 7 7 8 8 7 6 6 6 6 6 6 7 7 7 7 7 7 8 9 10 11 11 12 12 11 12 12 12 13 13 13 13 14 14 14 14 14 13 13 13
18 18 18 19 19 19 19 19 19 19 19 18 18 18 18 17 17 18 18 19 19 19 19 18 17 17 16 16 15 15 14 12 12 14 16 17 18 17 16 15 15 15 14 14 13 11 9 7 7 8 8 7 6 4 4 4 5 6 7 7 8 8 9 9 10 11 12 13 13 13 12 13 13 13 14 14 14 15 15 15 15 15 15 15 14 13
17 18 18 19 19 19 19 18 18 18 18 18 17 17 17 17 16 16 17 17 18 18 18 18 17 17 16 16 15 14 13 12 12 13 15 16 17 17 16 15 15 14 14 13 13 12 11 9 8 7 7 8 8 7 5 5 5 7 7 8 9 10 10 11 12 12 13 14 14 13 13 13 14 14 15 15 15 16 16 16 16 16 16 16 16 15
17 18 18 18 18 18 18 18 17 17 16 16 16 16 16 16 15 15 15 16 16 17 17 17 16 16 15 15 15 14 13 13 13 14 15 16 16 16 16 15 15 14 14 13 13 13 12 11 10 8 6 6 7 8 8 7 7 8 8 9 11 12 12 12 12 13 13 14 14 14 14 14 15 15 16 16 16 17 17 18 18 17 17 18 18 18
18 18 18 18 18 17 17 17 16 16 15 15 15 15 15 15 15 15 14 15 15 16 16 16 16 16 15 15 14 14 14 13 13 14 14 15 15 15 15 15 15 15 15 14 14 14 14 13 13 12 10 7 6 7 8 9 9 9 10 10 11 12 13 13 13 13 13 14 14 14 15 15 15 15 16 16 16 17 18 18 18 18 18 18 19 20
18 18 17 17 16 16 16 15 15 15 14 14 14 14 14 14 14 14 14 14 14 14 15 15 15 15 15 15 14 14 14 14 14 14 14 14 13 13 13 13 14 15 15 15 15 15 15 15 15 15 14 12 10 10 11 11 11 11 12 12 13 14 14 14 13 13 13 13 13 13 14 14 15 15 16 16 17 17 18 18 18 18 18 18 18 19
18 17 17 16 16 15 15 15 15 15 15 14 14 14 14 14 14 14 14 13 13 14 14 14 14 14 15 15 15 15 15 14 14 14 14 13 13 13 13 13 13 14 15 15 15 16 16 15 15 15 15 14 13 13 13 14 14 13 13 14 14 14 14 13 11 10 10 11 12 12 13 14 15 16 17 17 18 18 17 17 18 18 18 19 18 18
17 17 17 17 17 17 16 16 16 15 15 15 15 14 15 14 14 14 14 13 13 14 14 14 14 14 14 15 15 16 16 16 15 15 15 14 14 13 13 13 13 14 15 15 16 16 16 16 16 16 15 15 14 14 15 16 15 14 14 14 14 12 9 9 10 9 10 11 11 12 13 15 16 17 18 18 18 18 18 18 18 18 19 19 19 19
17 17 17 17 18 18 17 17 16 16 16 16 16 15 15 14 14 14 13 13 13 14 13 14 14 14 14 15 15 16 16 16 16 16 16 15 15 14 14 14 14 15 15 16 16 17 17 17 16 16 15 14 14 15 16 16 16 15 14 13 13 14 13 13 13 13 13 13 13 13 14 15 16 17 18 19 19 18 18 18 19 19 19 19 18 18
16 17 17 18 18 18 18 18 17 17 17 16 16 16 15 15 14 13 13 13 13 13 13 13 13 13 14 15 16 15 15 16 16 17 16 16 15 15 14 14 15 15 15 16 16 17 16 16 16 15 14 14 14 15 16 16 16 16 15 14 14 15 16 16 16 15 15 15 14 14 14 15 16 17 18 19 19 19 19 19 20 20 20 19 18 17
16 17 18 18 19 19 19 19 18 17 17 17 16 16 15 15 14 14 13 13 13 13 13 14 14 14 15 16 16 15 15 15 15 16 16 15 15 15 14 14 15 15 15 16 16 16 16 16 15 14 13 14 15 16 17 17 17 17 17 15 15 15 16 16 16 15 15 15 15 14 14 15 16 17 18 19 20 20 20 20 21 21 20 19 18 17
18 18 19 19 19 19 19 19 18 18 18 17 17 16 16 15 15 14 14 14 13 13 13 14 14 15 16 16 16 15 14 15 15 15 15 14 13 13 13 13 14 14 15 15 15 15 16 16 16 15 14 14 15 17 18 18 18 18 18 17 16 16 16 16 15 14 13 14 14 14 14 14 15 16 17 19 20 21 21 22 21 20 19 18 17 16
19 19 19 19 18 18 18 18 19 19 18 18 17 17 17 16 16 15 15 14 14 14 14 14 15 16 17 17 16 15 15 15 15 15 14 13 12 12 11 11 12 13 13 13 14 14 14 15 16 16 17 17 17 18 19 19 18 18 18 17 17 17 17 16 15 13 13 13 13 13 12 13 13 15 16 18 20 22 22 23 22 20 19 17 16 15
19 19 19 18 18 18 18 18 19 19 19 18 18 17 17 17 17 16 17 16 16 16 16 17 17 17 17 17 16 15 14 14 14 14 14 13 12 11 10 10 10 10 11 11 12 12 13 14 15 16 17 18 19 20 21 20 19 18 18 17 17 17 17 16 15 13 12 12 11 11 11 12 13 14 16 18 20 22 24 24 23 20 18 16 14 14
19 19 19 18 18 18 18 18 19 19 19 18 18 18 18 18 18 18 18 18 18 18 18 19 19 19 18 18 17 16 15 15 15 14 14 13 12 11 10 10 9 9 9 9 10 10 11 13 15 16 17 17 18 19 20 20 18 17 17 17 17 17 17 16 15 13 11 11 11 11 12 12 14 15 16 18 20 23 24 24 22 20 18 16 15 14
18 18 18 18 19 19 19 19 19 19 19 19 19 18 19 19 19 19 19 20 20 20 20 20 20 19 19 19 18 17 17 16 16 15 15 14 13 12 11 10 10 9 9 8 8 7 7 8 9 12 15 17 17 17 17 17 17 17 17 17 16 16 16 15 14 12 11 11 11 12 13 14 15 16 17 17 19 21 22 22 21 20 18 17 17 17
Wind_Direction
170 174 178 180 177 173 172 172 168 164 163 163 164 166 169 170 171 173 176 178 180 180 180 178 176 174 172 171 170 169 168 169 169 169 168 167 165 164 163 163 162 161 161 162 162 163 165 167 170 171 171 168 165 161 159 158 157 154 148 141 132 119 106 97 91 86 82 72 65 63 65 54 41 30 22 18 14 9 6 5 4 4 3 4 4 4
163 167 172 177 177 175 174 174 172 169 165 164 165 167 168 169 170 172 175 179 182 184 184 182 180 178 175 173 172 171 171 172 173 173 172 170 169 167 167 166 165 164 163 163 164 165 166 169 172 175 179 180 179 177 175 174 173 171 167 160 150 138 126 116 110 108 105 90 81 87 84 61 40 24 14 9 7 4 2 360 359 359 359 359 359 360
157 161 167 174 176 176 176 177 176 174 170 167 166 167 168 168 168 169 171 177 182 186 188 187 186 183 180 178 176 174 175 176 177 177 176 174 173 171 170 170 169 167 166 165 166 166 168 169 172 176 181 185 188 190 190 190 189 187 183 175 167 158 151 142 143 146 149 137 66 73 80 52 29 12 2 358 358 356 356 356 355 353 354 355 355 355
158 160 165 170 175 177 179 179 179 177 174 171 169 168 168 167 166 166 168 173 179 184 189 190 190 188 186 183 181 179 180 181 181 181 180 179 177 176 175 174 172 170 169 169 169 170 171 171 174 176 180 185 189 193 196 198 198 195 190 180 173 167 162 155 153 155 143 19 13 26 37 20 4 350 346 345 345 347 348 349 349 348 349 351 352 352
161 162 165 167 170 176 181 182 181 179 177 174 171 170 170 169 167 166 166 169 174 179 184 189 192 192 190 187 185 184 184 185 186 186 185 183 182 181 179 178 176 175 173 174 175 176 177 178 179 181 184 186 190 193 196 198 198 197 190 180 168 160 153 145 137 123 73 19 359 357 349 337 332 330 330 333 335 338 341 342 343 344 345 347 349 349
162 164 165 165 167 171 176 180 181 180 178 176 174 173 173 173 171 168 166 166 168 172 177 184 190 193 193 191 188 187 188 190 191 190 189 187 186 185 184 182 181 179 179 180 181 183 183 184 185 186 189 191 192 194 195 196 196 196 193 188 173 153 141 135 135 139 140 151 318 316 315 313 315 318 322 324 327 330 333 336 337 338 339 341 342 345
160 163 164 164 165 167 170 175 178 179 177 175 174 175 176 176 175 172 169 167 166 168 172 179 187 193 194 194 192 190 191 193 194 193 191 189 188 188 187 186 184 183 183 185 187 188 189 190 190 191 191 194 197 198 199 198 197 198 200 201 198 184 158 151 161 176 188 197 222 258 284 296 305 310 312 313 316 319 323 327 330 332 332 335 337 339
156 160 163 163 162 163 165 171 176 179 177 175 173 173 176 177 177 176 174 171 170 170 172 179 186 193 196 196 195 195 196 196 195 194 193 192 192 192 192 191 190 189 188 190 192 194 195 195 195 196 197 199 201 203 203 202 202 204 207 212 223 220 205 191 196 210 216 216 218 227 244 260 276 284 290 294 299 304 310 314 319 322 325 328 331 334
155 159 163 165 163 161 162 168 174 178 179 178 175 174 174 176 177 178 178 176 176 177 179 183 187 193 197 198 199 199 200 200 199 198 198 197 197 197 197 197 196 195 194 196 198 200 201 201 201 201 202 204 206 209 210 209 209 212 215 222 232 238 236 228 227 232 238 239 236 234 235 242 251 260 271 279 286 291 297 301 306 308 313 320 327 330
157 159 162 166 167 166 163 166 171 176 179 180 179 178 177 175 175 177 179 182 184 186 188 191 192 194 197 200 200 200 202 203 203 203 203 202 202 201 201 201 200 199 199 200 202 204 204 205 206 206 206 209 211 214 215 216 217 220 224 230 237 244 247 245 245 246 249 252 253 253 252 254 258 264 272 279 285 290 294 299 304 307 312 317 323 327
156 158 160 163 167 169 168 167 170 174 177 178 180 181 182 181 179 177 179 184 189 192 195 198 200 201 201 202 202 203 204 206 207 206 205 204 204 204 203 203 202 202 202 204 206 207 208 208 209 210 212 214 216 220 221 222 223 226 231 236 241 246 251 253 253 253 255 258 261 265 269 272 275 278 282 286 291 295 300 304 309 314 318 322 325 326
155 158 159 160 163 166 168 168 169 171 174 174 176 181 187 189 187 184 184 186 189 192 196 201 206 209 209 209 208 208 209 210 209 208 208 206 206 205 205 204 204 204 205 206 207 208 209 211 212 214 216 218 221 224 226 228 231 233 236 239 243 247 252 255 258 260 260 262 266 270 276 281 285 288 291 294 297 301 305 309 313 317 321 324 327 328
157 158 159 161 163 165 166 166 167 170 175 178 180 183 188 189 189 189 189 190 191 193 195 199 206 212 216 217 216 215 214 213 212 211 210 209 209 209 209 208 208 209 210 210 210 211 211 213 216 219 221 222 226 228 231 234 236 238 240 243 245 249 252 257 260 264 266 268 270 274 278 282 287 290 293 296 299 302 305 309 312 316 319 322 325 326
157 158 160 162 166 170 170 170 170 174 181 185 188 188 187 186 186 187 189 191 193 194 194 196 200 207 214 218 219 218 216 214 212 211 210 211 211 212 213 215 216 215 215 215 214 213 213 214 216 220 223 226 229 232 235 238 241 242 244 245 248 250 255 259 263 268 271 274 276 278 281 284 287 290 293 295 298 301 304 307 310 313 315 318 320 322
160 161 164 169 173 177 178 178 179 182 186 188 189 188 185 183 183 184 185 186 187 188 188 190 194 199 206 211 214 215 214 212 210 209 209 209 210 211 214 218 220 220 220 219 217 215 212 213 214 217 222 227 231 235 239 241 243 245 246 248 249 252 256 261 265 270 273 277 279 281 284 286 289 292 294 296 298 301 304 306 309 311 314 315 316 317
167 168 170 175 179 182 184 184 185 186 187 187 186 184 181 181 182 184 183 182 180 179 179 181 186 194 203 208 209 208 208 208 208 208 208 208 207 208 210 215 220 222 222 221 221 219 216 214 214 216 221 227 232 236 239 243 245 248 248 249 251 254 258 262 267 271 275 278 281 284 286 289 291 294 296 298 300 302 304 307 309 311 313 314 315 314
173 175 178 179 181 184 186 187 187 187 186 184 185 185 185 184 183 183 182 179 176 176 179 180 182 188 200 205 205 204 203 203 204 206 208 208 207 207 209 213 221 226 225 225 227 228 226 224 221 222 226 231 236 240 243 246 248 250 250 251 253 255 259 263 267 271 275 279 282 285 288 291 293 295 297 299 301 303 305 308 310 311 313 313 314 314
178 181 182 182 183 184 185 186 188 187 186 184 185 187 188 187 185 183 182 179 178 179 183 186 188 189 188 197 201 201 200 200 201 202 205 208 209 209 210 215 222 229 231 230 232 234 236 236 235 236 240 244 248 251 253 253 254 253 253 253 253 256 259 263 267 272 276 279 282 286 289 292 295 297 299 300 302 304 306 308 310 311 312 312 313 313
182 185 185 185 185 184 184 186 187 187 186 184 184 184 184 185 185 184 184 183 183 183 185 188 193 195 194 197 198 197 196 198 199 199 199 204 210 213 213 217 223 230 234 234 235 237 240 243 245 247 250 255 259 262 262 261 260 258 255 253 253 255 258 263 267 272 275 279 283 287 291 294 296 298 299 301 302 304 306 308 309 310 311 311 311 312
185 188 189 188 185 183 185 188 190 190 188 186 184 182 181 182 183 184 185 186 186 187 187 189 194 198 202 202 198 195 194 196 197 198 197 200 208 215 217 220 225 231 234 234 234 237 240 245 249 252 256 260 263 264 264 264 263 260 257 253 252 253 257 262 267 271 275 279 284 288 292 295 297 298 300 301 303 305 306 308 309 310 310 310 311 312
189 192 195 194 189 186 188 193 194 193 191 188 184 182 181 181 182 184 185 185 185 186 187 190 194 200 204 204 198 192 193 194 196 197 195 198 206 217 221 224 228 233 235 232 231 234 239 244 249 254 258 261 263 263 264 264 263 260 257 252 250 252 256 261 266 270 275 280 285 290 293 295 297 298 300 301 303 305 306 307 308 308 309 309 310 311
196 197 199 201 199 197 197 198 197 195 193 190 186 184 183 182 182 183 184 183 182 182 184 188 193 197 202 201 195 189 192 195 198 199 196 194 205 217 223 225 229 234 236 231 229 231 237 242 247 253 258 262 264 264 264 263 263 260 255 250 248 250 254 259 263 269 275 281 286 290 293 295 296 297 299 301 303 304 305 306 307 307 307 308 308 309
206 203 202 203 205 207 207 204 200 197 195 194 193 191 189 187 185 184 183 182 180 179 179 181 184 188 192 191 187 185 188 193 199 202 199 196 203 214 222 226 229 234 236 230 226 228 234 240 246 252 258 262 264 266 266 265 263 260 253 247 245 247 251 255 260 267 275 282 287 290 292 292 294 295 297 300 302 303 304 305 305 305 306 306 307 308
209 207 205 205 206 209 209 206 201 197 196 196 197 197 195 192 188 186 184 182 179 177 176 176 175 176 180 182 181 180 185 191 196 200 201 202 205 212 221 226 230 232 232 227 223 225 232 239 245 251 256 260 262 264 265 266 264 260 251 244 241 242 245 250 258 268 277 284 287 289 289 290 291 293 296 298 299 301 301 302 302 303 304 304 305 305
207 207 207 207 208 208 208 206 202 198 195 194 194 193 191 188 185 182 181 179 177 176 174 170 163 162 170 176 179 181 186 191 195 198 200 202 205 211 219 225 229 229 226 222 221 224 230 237 244 250 254 257 259 260 262 264 262 257 247 239 236 236 238 246 259 271 280 285 286 286 286 287 289 291 294 296 297 298 298 299 300 300 301 301 301 302
207 208 208 208 208 207 207 205 202 198 194 191 190 188 185 181 178 176 174 175 175 174 170 164 160 162 170 175 179 183 188 193 197 199 200 200 200 205 216 222 226 226 222 219 220 224 230 237 243 248 252 254 255 257 259 261 259 251 240 232 229 230 234 246 262 275 282 284 283 282 282 284 287 289 292 293 294 295 296 297 297 298 299 298 298 299
203 205 206 205 204 202 201 199 196 193 191 189 188 187 183 179 175 172 171 175 177 176 169 165 163 167 173 179 185 188 191 194 198 200 202 200 197 200 210 218 221 221 220 219 221 226 232 238 242 245 248 250 252 254 257 258 252 242 230 224 222 225 234 250 266 277 281 280 278 277 279 281 285 287 289 291 291 293 294 296 297 297 297 297 297 297
194 196 196 196 195 193 191 189 188 186 185 186 186 187 187 183 177 172 174 179 180 178 173 171 170 169 173 183 190 193 195 197 199 201 202 201 198 200 208 214 217 218 219 221 224 229 234 238 241 242 243 245 249 253 256 252 241 229 220 217 218 224 237 255 270 277 278 276 273 273 276 279 282 284 286 287 289 292 295 297 298 298 298 297 298 299
177 179 180 180 179 179 179 178 179 179 181 182 185 188 190 189 185 182 183 184 182 179 177 177 177 175 174 179 187 195 200 201 202 202 202 201 200 203 208 211 214 217 220 223 228 233 235 237 237 237 237 242 247 251 251 242 228 218 213 212 217 227 244 261 272 275 274 270 269 270 273 277 279 282 284 287 291 295 299 301 302 302 301 302 302 304
153 154 155 157 161 164 167 169 171 173 176 180 183 186 190 194 195 193 191 188 185 181 179 180 179 176 170 167 174 193 208 208 205 203 202 202 202 204 206 206 210 215 217 217 221 230 234 233 231 230 230 237 243 247 242 228 217 211 209 213 221 235 251 264 270 270 266 264 265 269 273 277 281 285 289 294 298 302 305 307 308 307 306 306 307 308
144 144 144 147 152 155 158 161 162 165 170 175 179 183 188 194 198 199 197 193 190 187 184 182 181 178 173 164 159 189 214 210 206 204 203 203 204 206 205 202 206 213 215 208 201 206 220 216 215 217 219 226 232 234 228 216 210 210 214 222 233 245 256 262 263 261 261 264 269 275 280 285 289 292 296 300 303 306 308 310 311 310 309 310 311 312
144 145 146 148 152 154 156 157 159 162 166 172 176 180 184 190 195 199 198 196 194 193 190 187 185 184 184 182 182 191 206 204 203 202 202 202 204 206 208 205 206 210 213 208 208 211 191 181 191 200 206 215 221 223 221 217 218 222 229 238 245 251 255 255 255 258 266 275 282 287 290 292 295 297 299 301 303 306 308 309 310 310 310 311 312 313
145 147 148 152 154 156 158 160 162 165 167 171 175 178 181 185 188 191 193 193 194 195 195 192 189 187 189 191 194 198 204 201 199 199 199 199 199 201 205 206 207 208 210 208 210 213 204 186 182 191 204 219 228 232 232 233 236 241 246 250 251 251 249 250 256 268 281 288 293 295 296 297 298 300 302 304 306 308 309 312 313 314 313 312 312 313
146 148 151 155 157 160 162 164 167 168 169 172 175 177 180 181 182 183 184 186 188 191 195 196 194 190 188 189 193 201 207 202 196 195 196 197 198 199 201 202 205 207 206 205 206 211 215 203 193 192 206 222 233 240 243 244 247 249 249 250 249 248 247 255 268 282 290 295 297 298 300 302 304 305 307 309 311 313 315 317 317 317 315 313 313 314
146 149 153 157 160 163 166 169 171 172 173 174 176 179 181 181 181 181 181 182 184 187 189 194 197 197 195 194 197 202 206 201 194 192 194 198 201 202 201 202 206 208 204 203 202 204 212 209 205 203 209 223 234 240 243 245 246 246 246 246 247 251 258 270 282 292 297 299 301 303 304 306 307 308 310 312 314 316 317 318 317 317 316 316 315 314
148 151 154 158 162 165 168 172 174 176 177 178 180 182 183 184 184 184 184 185 186 187 188 190 194 198 202 206 209 212 212 206 196 192 194 199 204 206 203 204 209 211 207 203 202 202 203 205 208 212 219 229 239 242 240 237 236 240 245 250 256 264 273 283 291 298 301 302 303 305 305 306 306 308 310 312 313 314 314 314 315 317 318 318 316 313
153 155 159 162 164 166 169 173 176 179 181 182 184 186 186 186 186 187 187 189 190 191 192 194 196 199 203 209 214 217 217 210 201 195 196 201 207 210 208 209 212 214 210 207 205 204 203 202 206 213 222 228 233 238 235 229 232 240 247 255 264 273 280 287 294 298 299 300 301 302 303 304 304 306 308 309 310 310 311 313 316 319 320 319 317 313
160 161 164 166 168 169 170 172 176 180 183 185 186 187 188 188 188 189 190 192 194 195 196 198 200 203 206 210 213 214 214 208 202 199 200 204 208 213 214 212 212 214 214 213 212 209 206 204 203 209 219 225 230 233 231 227 230 236 243 250 258 266 272 279 286 290 292 294 296 297 299 300 301 302 303 304 306 307 309 313 317 319 320 319 317 314
167 169 170 172 173 173 173 174 177 182 185 187 188 189 190 191 191 191 192 194 196 198 200 202 203 205 208 211 214 216 215 210 206 203 205 208 211 215 217 214 212 211 212 213 215 215 212 210 207 206 206 216 225 229 229 227 228 233 237 244 250 256 263 270 276 281 284 287 290 292 293 294 295 296 298 300 303 306 310 313 316 318 319 318 316 314
174 175 176 178 179 180 181 181 183 185 187 188 190 192 193 194 194 195 196 197 199 201 203 205 206 207 209 211 215 218 220 218 215 212 211 213 215 218 220 219 216 215 214 213 215 217 217 217 218 219 219 218 219 222 225 228 231 235 242 250 256 259 263 268 273 276 279 281 283 285 287 289 290 291 294 298 302 305 309 311 313 315 316 315 314 313
178 179 180 181 183 185 187 188 189 190 192 192 193 194 196 198 198 199 200 201 202 204 207 208 208 209 210 212 216 220 224 226 226 224 222 221 221 222 223 223 222 222 220 219 220 222 223 223 224 226 227 229 231 232 232 235 238 242 249 257 263 267 271 274 274 274 275 276 278 280 283 285 287 290 293 297 300 303 305 307 308 310 312 313 311 310
180 180 181 182 183 185 188 190 192 194 197 198 198 199 202 204 204 204 204 204 206 209 211 212 212 211 211 213 217 220 224 228 231 232 231 230 228 227 227 226 226 227 227 226 226 227 229 230 231 232 233 235 238 242 246 247 247 249 252 257 265 272 278 276 272 271 273 275 277 279 280 282 285 288 292 295 297 299 301 302 304 306 308 309 309 307
182 182 182 183 184 186 188 190 192 195 198 201 203 205 209 211 212 211 210 210 211 213 215 216 216 215 215 215 217 220 223 227 230 233 234 234 233 231 230 229 229 229 230 230 230 231 233 234 235 236 239 241 243 247 252 255 255 255 255 257 262 267 272 272 273 275 276 277 277 277 278 281 284 287 291 292 294 295 297 300 302 304 305 305 305 303
182 183 184 186 188 190 191 192 194 197 199 201 203 207 212 215 216 217 217 217 218 218 219 219 219 219 219 219 219 220 222 225 228 230 232 233 233 233 232 231 231 231 232 232 233 233 234 236 237 239 242 243 246 249 253 257 259 260 259 258 257 257 259 267 274 278 278 277 276 276 278 281 284 287 289 290 292 293 296 298 300 302 304 304 303 300
184 184 186 189 192 192 193 194 197 200 202 204 206 209 213 216 218 219 219 219 221 221 221 221 220 219 221 223 224 222 222 223 225 227 229 230 231 231 231 232 232 233 234 235 236 236 236 236 238 241 244 245 246 248 252 256 259 261 262 261 259 259 262 266 271 274 275 276 277 278 280 283 286 288 289 290 291 293 295 297 299 301 303 304 302 300
187 187 189 192 194 194 195 196 198 200 202 205 208 211 214 217 218 220 220 221 220 220 221 221 219 217 218 222 223 223 223 224 226 226 227 227 228 230 231 232 234 235 236 237 238 239 239 240 241 242 242 244 246 248 250 253 256 259 262 263 263 263 264 266 267 269 272 274 276 279 282 284 286 287 288 289 291 293 295 297 299 301 304 305 303 301
191 191 192 193 193 194 196 198 199 200 201 204 207 211 214 215 216 217 218 219 219 217 216 218 218 218 220 222 222 220 221 224 227 228 227 227 228 229 231 233 234 235 236 236 238 239 240 242 243 242 241 242 244 247 249 251 252 255 258 261 263 264 264 265 266 268 270 272 275 278 283 284 285 286 286 289 290 292 294 297 300 302 304 304 304 302
194 195 195 194 193 193 194 197 199 200 201 203 206 209 212 214 213 211 211 213 213 211 209 211 214 217 221 223 223 222 222 225 229 231 232 231 230 229 229 230 232 232 233 234 235 237 240 241 241 241 241 242 245 248 250 251 252 253 256 259 261 262 263 265 267 268 269 271 274 278 280 281 282 283 286 289 291 293 295 298 300 303 304 305 305 304
197 197 197 196 195 194 195 198 200 201 202 203 203 205 208 211 211 208 206 206 206 207 207 208 211 214 218 219 220 220 222 226 231 235 236 234 232 229 227 227 226 226 227 229 232 235 238 240 241 240 240 241 244 248 252 254 254 254 256 257 257 258 260 263 265 267 268 270 272 274 274 274 276 280 286 290 293 295 296 298 300 303 306 307 306 304
198 199 199 199 198 197 198 200 201 202 202 202 202 202 203 206 207 208 207 205 204 206 209 211 213 215 217 218 218 216 216 220 226 231 233 234 232 228 226 224 221 219 219 223 228 235 242 247 248 246 243 242 243 246 250 253 255 255 253 252 253 254 256 260 264 267 268 268 267 266 266 267 270 276 283 289 293 295 296 298 300 303 307 308 306 303
197 199 200 201 201 201 202 203 203 203 203 202 201 200 200 201 202 204 205 204 205 206 211 214 217 218 219 221 220 217 215 216 219 223 227 230 230 228 226 224 220 215 210 213 220 232 247 258 261 258 252 246 245 245 246 249 250 250 250 249 249 251 254 257 261 263 263 262 260 260 261 264 269 275 282 288 292 294 295 296 299 302 306 307 306 304